Find Kosmos-1527

NORAD ID: 14616 Int'l Des: 1984-001 Owner: GUKOS Country: SU operational
LEOCIRCULAR

Aktuelle Ansicht

3D-Globus wird geladen...

About Kosmos-1527

Kosmos-1527 (NORAD 14616) is a satellite launched Jan 5, 1984 by GUKOS of SU. It operates in LEO, CIRCULAR orbit with a mass of 60.00 kg.

Über Kosmos-1527

Beschreibung wird geladen...

Nächste Überflüge

Passes for default location (London). Set your location on the main map for personalized predictions.

Höhenverlauf

Loading altitude history...

Zweizeiliger Elementsatz

1 14616U 84001F 26159.78030561 -.00000003 00000-0 86743-4 0 9990
2 14616 74.0091 279.2827 0001595 175.9439 296.1219 12.51104597526329
Epoch: 8. Juni 2026 • Age: 9 hours

Aktueller Status

Höhe 1477.8 km
Geschwindigkeit 7.12 km/s
Subsatellitenpunkt -45.21°S, 47.5°W
Startdatum 5. Jan. 1984
Alter 42.4 years
Typ other

Technische Details

Klassifizierung Payload
Masse 60.00 kg
Trockenmasse 60.00 kg
Gesamtmasse 60.00 kg
Länge 0.80 m
Durchmesser 0.80 m
Spannweite 0.80 m
Form Poly
Hersteller NPOPM
Bus-Typ Strela-1 11F625
Phasenstatus In Orbit
Besitzer/Staat GUKOS/SU

Most Searched